Regional Weather Roundup
Issued by NWS

Home | Current Version | Previous Version | Text Only | Print | Product List | Glossary On
Versions: 1 2 3 4 5 6 7 8 9 10 11 12 13 14 15 16 17 18 19 20 21 22 23 24 25 26 27 28 29 30 31 32 33 34 35 36 37 38 39 40 41 42 43 44 45 46 47 48 49 50
000
ASUS44 KJAN 050310
RWRMS

MISSISSIPPI HOURLY WEATHER ROUNDUP
NATIONAL WEATHER SERVICE JACKSON MS
1000 PM CDT FRI SEP 04 2015

NOTE: "FAIR: INDICATES FEW OR NO CLOUDS BELOW 12,000 FEET WITH NO
SIGNIFICANT WEATHER AND/OR OBSTRUCTIONS TO VISIBILITY.

MSZ001>002-007>008-010>013-018>021-025>028-034>036-050400-
NORTHWEST MISSISSIPPI

CITY           SKY/WX    TMP DP  RH WIND       PRES   REMARKS
CLARKSDALE       N/A     77  72  83 NE6       30.00S
CLEVELAND      FAIR      81  73  75 E6        29.98R
GREENWOOD      CLEAR     76  70  82 NE3       29.98R
GREENVILLE     CLEAR     78  72  81 NE5       29.96R
OLIVE BRANCH   CLEAR     79  79 100 CALM      30.02R
OXFORD         FAIR      75  72  88 CALM      30.03S
TUNICA           N/A    N/A N/A N/A MISG        N/A
$$

MSZ003>006-009-014>017-022>024-029>033-037>039-050400-
NORTHEAST MISSISSIPPI

CITY           SKY/WX    TMP DP  RH WIND       PRES   REMARKS
COLUMBUS AFB   CLEAR     78  74  86 CALM      29.99R
CORINTH        FAIR      73  72  94 CALM      30.02R FOG
GOLDN TRIANGLE PTCLDY    81  70  69 NE6       30.00R
STARKVILLE     FAIR      75  70  83 CALM      30.01R
TUPELO         CLEAR     78  73  84 CALM      30.01R
$$

MSZ040-058-050400-
CENTRAL MISSISSIPPI

CITY           SKY/WX    TMP DP  RH WIND       PRES   REMARKS
JACKSON INTL   PTCLDY    82  68  62 SE3       29.98R
JACKSON HAWKNS PTCLDY    83  69  62 E6        29.98R
MERIDIAN KEY   CLEAR     77  75  93 CALM      29.99R
MERIDIAN NAS   CLEAR     79  73  82 CALM      29.99R
VICKSBURG      CLOUDY    78  73  84 S3        29.96R
$$

MSZ059>079-050400-
SOUTH MISSISSIPPI

CITY           SKY/WX    TMP DP  RH WIND       PRES   REMARKS
BROOKHAVEN     FAIR      81  73  78 S3        30.01R
HATTIESBURG    CLEAR     82  73  74 CALM      29.99R
MCCOMB         PTCLDY    76  75  97 CALM      29.99R
NATCHEZ        PTCLDY    81  72  74 S3        30.00R
PINE BELT      CLEAR     79  70  73 SW3       30.01R
$$

MSZ080>082-050400-
COASTAL MISSISSIPPI

CITY           SKY/WX    TMP DP  RH WIND       PRES   REMARKS
BILOXI         CLEAR     82  76  82 W3        29.98R
PASCAGOULA     CLEAR     75  74  96 CALM      29.98R
GULFPORT       CLEAR     80  75  84 CALM      29.98R
$$



USA.gov is the U.S. government's official web portal to all federal, state and local government web resources and services.